Back to Top

Language: 

My Weather Underground Personal Weather Station Historical Data with Graphs...

Delerius Weather Station Historical Data
Daily Summary for May 29, 2017 Units:  English    Metric   Both
« Previous Day
Next Day »
Daily Weekly Monthly Yearly Custom
  High: Low: Average:
Temperature: 59.5 °F 53.2 °F 55.2 °F
Dew Point: 55.9 °F 52.4 °F 54.1 °F
Humidity: 97 % 87 % 96 %
Wind Speed: 7.0 mph 0.0 mph 2.8 mph
Wind Gust: 14.0 mph - -
Wind:- - ENE
Pressure: 30.02 in 29.86 in -
Precipitation: 0.15 in    
Historical Graphs
 
 
Tabular Data for May 29, 2017
Time Temperature Dew Point Pressure Wind Wind Speed Wind Gust Humidity Rainfall Rate (Hourly) solar Conditions
00:02 59.5 °F 55.7 °F 30.01 in ENE 4.0 mph 10.0 mph 87 % 0.00 in 0 W/m2
00:07 59.5 °F 55.7 °F 30.01 in ENE 4.0 mph 9.0 mph 87 % 0.00 in 0 W/m2
00:12 59.4 °F 55.5 °F 30.02 in ENE 5.0 mph 11.0 mph 87 % 0.00 in 0 W/m2
00:17 59.2 °F 55.3 °F 30.02 in ENE 5.0 mph 11.0 mph 87 % 0.00 in 0 W/m2
00:22 59.2 °F 55.6 °F 30.02 in East 4.0 mph 9.0 mph 88 % 0.00 in 0 W/m2
00:27 59.2 °F 55.6 °F 30.02 in East 4.0 mph 8.0 mph 88 % 0.00 in 0 W/m2
00:32 59.0 °F 55.8 °F 30.02 in East 4.0 mph 8.0 mph 89 % 0.01 in 0 W/m2
00:37 58.8 °F 55.6 °F 30.02 in East 4.0 mph 8.0 mph 89 % 0.03 in 0 W/m2
00:42 58.6 °F 55.7 °F 30.02 in East 4.0 mph 8.0 mph 90 % 0.05 in 0 W/m2
00:47 58.5 °F 55.8 °F 30.01 in ENE 4.0 mph 11.0 mph 91 % 0.05 in 0 W/m2
00:48 58.5 °F 55.8 °F 30.01 in ENE 5.0 mph 11.0 mph 91 % 0.05 in 0 W/m2
00:53 58.3 °F 55.7 °F 30.01 in ENE 4.0 mph 11.0 mph 91 % 0.06 in 0 W/m2
00:58 58.1 °F 55.8 °F 30.02 in ENE 3.0 mph 9.0 mph 92 % 0.06 in 0 W/m2
01:03 58.1 °F 55.8 °F 30.01 in ENE 2.0 mph 7.0 mph 92 % 0.06 in 0 W/m2
01:08 57.9 °F 55.9 °F 30.01 in ENE 2.0 mph 7.0 mph 93 % 0.06 in 0 W/m2
01:13 57.7 °F 55.7 °F 30.01 in ENE 3.0 mph 8.0 mph 93 % 0.06 in 0 W/m2
01:18 57.6 °F 55.6 °F 30.01 in NE 4.0 mph 8.0 mph 93 % 0.06 in 0 W/m2
01:23 57.4 °F 55.4 °F 30.01 in NE 5.0 mph 9.0 mph 93 % 0.06 in 0 W/m2
01:28 57.4 °F 55.4 °F 30.01 in ENE 4.0 mph 9.0 mph 93 % 0.06 in 0 W/m2
01:33 57.2 °F 55.2 °F 30.00 in ENE 3.0 mph 7.0 mph 93 % 0.06 in 0 W/m2
01:38 57.0 °F 55.0 °F 30.00 in NE 4.0 mph 9.0 mph 93 % 0.03 in 0 W/m2
01:43 56.8 °F 55.1 °F 30.00 in NE 3.0 mph 9.0 mph 94 % 0.02 in 0 W/m2
01:48 56.8 °F 55.1 °F 29.99 in NE 3.0 mph 7.0 mph 94 % 0.02 in 0 W/m2
01:53 56.7 °F 55.0 °F 29.99 in ENE 4.0 mph 9.0 mph 94 % 0.02 in 0 W/m2
01:58 56.7 °F 55.0 °F 30.00 in ENE 5.0 mph 10.0 mph 94 % 0.02 in 0 W/m2
02:03 56.5 °F 54.8 °F 29.99 in ENE 4.0 mph 10.0 mph 94 % 0.02 in 0 W/m2
02:08 56.5 °F 54.8 °F 29.99 in ENE 4.0 mph 8.0 mph 94 % 0.02 in 0 W/m2
02:13 56.5 °F 54.8 °F 29.99 in ENE 4.0 mph 8.0 mph 94 % 0.02 in 0 W/m2
02:18 56.5 °F 55.1 °F 30.00 in ENE 4.0 mph 8.0 mph 95 % 0.02 in 0 W/m2
02:23 56.3 °F 54.6 °F 30.00 in ENE 4.0 mph 12.0 mph 94 % 0.02 in 0 W/m2
02:28 56.1 °F 54.4 °F 30.00 in ENE 4.0 mph 12.0 mph 94 % 0.02 in 0 W/m2
02:33 56.1 °F 54.7 °F 30.00 in ENE 3.0 mph 8.0 mph 95 % 0.01 in 0 W/m2
02:38 56.1 °F 54.7 °F 30.00 in ENE 3.0 mph 8.0 mph 95 % 0.01 in 0 W/m2
02:39 56.1 °F 54.4 °F 30.00 in ENE 3.0 mph 8.0 mph 94 % 0.01 in 0 W/m2
02:44 55.9 °F 54.5 °F 30.00 in ENE 3.0 mph 8.0 mph 95 % 0.01 in 0 W/m2
02:49 55.9 °F 54.5 °F 30.00 in ENE 3.0 mph 9.0 mph 95 % 0.01 in 0 W/m2
02:54 55.9 °F 54.5 °F 30.00 in ENE 4.0 mph 9.0 mph 95 % 0.01 in 0 W/m2
02:59 55.9 °F 54.5 °F 30.00 in ENE 3.0 mph 8.0 mph 95 % 0.01 in 0 W/m2
03:04 55.9 °F 54.5 °F 29.99 in East 2.0 mph 8.0 mph 95 % 0.00 in 0 W/m2
03:09 55.9 °F 54.5 °F 29.99 in East 3.0 mph 9.0 mph 95 % 0.00 in 0 W/m2
03:14 55.8 °F 54.3 °F 29.99 in ENE 3.0 mph 9.0 mph 95 % 0.00 in 0 W/m2
03:19 55.8 °F 54.3 °F 29.99 in ENE 3.0 mph 8.0 mph 95 % 0.00 in 0 W/m2
03:24 55.8 °F 54.3 °F 29.99 in ENE 3.0 mph 8.0 mph 95 % 0.00 in 0 W/m2
03:29 55.8 °F 54.3 °F 29.99 in ENE 4.0 mph 11.0 mph 95 % 0.00 in 0 W/m2
03:34 55.6 °F 54.2 °F 29.99 in ENE 5.0 mph 11.0 mph 95 % 0.00 in 0 W/m2
03:39 55.6 °F 54.2 °F 29.99 in ENE 4.0 mph 8.0 mph 95 % 0.00 in 0 W/m2
03:44 55.6 °F 54.2 °F 29.99 in ENE 3.0 mph 8.0 mph 95 % 0.00 in 0 W/m2
03:49 55.6 °F 54.2 °F 29.99 in ENE 4.0 mph 10.0 mph 95 % 0.00 in 0 W/m2
03:54 55.4 °F 54.0 °F 29.98 in ENE 4.0 mph 10.0 mph 95 % 0.00 in 0 W/m2
03:59 55.4 °F 54.0 °F 29.98 in ENE 3.0 mph 8.0 mph 95 % 0.01 in 0 W/m2
04:04 55.4 °F 54.0 °F 29.98 in ENE 3.0 mph 8.0 mph 95 % 0.01 in 0 W/m2
04:09 55.2 °F 54.1 °F 29.98 in ENE 3.0 mph 9.0 mph 96 % 0.01 in 0 W/m2
04:14 55.4 °F 54.3 °F 29.97 in ENE 3.0 mph 9.0 mph 96 % 0.01 in 0 W/m2
04:19 55.2 °F 54.1 °F 29.97 in ENE 3.0 mph 7.0 mph 96 % 0.01 in 0 W/m2
04:24 55.2 °F 53.8 °F 29.97 in ENE 3.0 mph 7.0 mph 95 % 0.01 in 0 W/m2
04:29 55.2 °F 54.1 °F 29.97 in ENE 3.0 mph 7.0 mph 96 % 0.01 in 0 W/m2
04:34 55.2 °F 54.1 °F 29.96 in ENE 4.0 mph 8.0 mph 96 % 0.01 in 0 W/m2
04:39 55.0 °F 53.9 °F 29.96 in ENE 5.0 mph 10.0 mph 96 % 0.01 in 0 W/m2
04:44 55.0 °F 53.9 °F 29.96 in ENE 5.0 mph 10.0 mph 96 % 0.01 in 0 W/m2
04:49 55.0 °F 53.9 °F 29.96 in ENE 5.0 mph 11.0 mph 96 % 0.01 in 0 W/m2
04:54 55.0 °F 53.9 °F 29.95 in ENE 5.0 mph 11.0 mph 96 % 0.01 in 0 W/m2
04:59 55.0 °F 53.9 °F 29.95 in ENE 5.0 mph 10.0 mph 96 % 0.00 in 0 W/m2
05:04 54.9 °F 53.7 °F 29.95 in ENE 5.0 mph 9.0 mph 96 % 0.00 in 0 W/m2
05:09 54.9 °F 53.7 °F 29.95 in ENE 5.0 mph 11.0 mph 96 % 0.00 in 0 W/m2
05:15 54.9 °F 53.7 °F 29.95 in ENE 5.0 mph 11.0 mph 96 % 0.00 in 0 W/m2
05:20 54.9 °F 53.7 °F 29.95 in ENE 4.0 mph 8.0 mph 96 % 0.00 in 0 W/m2
05:25 54.9 °F 53.7 °F 29.95 in ENE 3.0 mph 8.0 mph 96 % 0.00 in 0 W/m2
05:30 54.9 °F 53.7 °F 29.95 in ENE 4.0 mph 9.0 mph 96 % 0.00 in 0 W/m2
05:35 54.9 °F 53.7 °F 29.95 in NE 4.0 mph 10.0 mph 96 % 0.00 in 0 W/m2
05:40 54.7 °F 53.6 °F 29.95 in ENE 5.0 mph 10.0 mph 96 % 0.01 in 0 W/m2
05:45 54.7 °F 53.6 °F 29.95 in ENE 5.0 mph 10.0 mph 96 % 0.01 in 0 W/m2
05:50 54.7 °F 53.6 °F 29.94 in NE 5.0 mph 10.0 mph 96 % 0.01 in 5 W/m2
05:55 54.7 °F 53.6 °F 29.94 in NE 5.0 mph 10.0 mph 96 % 0.01 in 5 W/m2
06:00 54.7 °F 53.6 °F 29.94 in NE 5.0 mph 9.0 mph 96 % 0.01 in 5 W/m2
06:05 54.5 °F 53.4 °F 29.93 in ENE 5.0 mph 12.0 mph 96 % 0.01 in 7 W/m2
06:10 54.3 °F 53.2 °F 29.93 in ENE 6.0 mph 12.0 mph 96 % 0.01 in 7 W/m2
06:15 54.3 °F 53.2 °F 29.93 in ENE 6.0 mph 14.0 mph 96 % 0.01 in 7 W/m2
06:20 54.1 °F 53.0 °F 29.93 in ENE 7.0 mph 14.0 mph 96 % 0.01 in 7 W/m2
06:25 54.1 °F 53.0 °F 29.93 in ENE 6.0 mph 12.0 mph 96 % 0.01 in 7 W/m2
06:30 54.1 °F 53.0 °F 29.93 in ENE 6.0 mph 11.0 mph 96 % 0.01 in 9 W/m2
06:35 54.1 °F 53.0 °F 29.93 in ENE 5.0 mph 11.0 mph 96 % 0.01 in 9 W/m2
06:40 54.1 °F 53.0 °F 29.94 in ENE 5.0 mph 9.0 mph 96 % 0.00 in 11 W/m2
06:45 54.1 °F 53.0 °F 29.94 in ENE 6.0 mph 12.0 mph 96 % 0.00 in 11 W/m2
06:47 54.1 °F 53.0 °F 29.94 in ENE 5.0 mph 12.0 mph 96 % 0.00 in 9 W/m2
06:52 54.1 °F 53.0 °F 29.94 in ENE 5.0 mph 12.0 mph 96 % 0.00 in 11 W/m2
06:57 54.0 °F 53.1 °F 29.94 in ENE 4.0 mph 9.0 mph 97 % 0.00 in 12 W/m2
07:02 54.1 °F 53.3 °F 29.94 in East 4.0 mph 9.0 mph 97 % 0.00 in 12 W/m2
07:07 54.1 °F 53.3 °F 29.95 in East 4.0 mph 7.0 mph 97 % 0.00 in 14 W/m2
07:12 54.0 °F 53.1 °F 29.94 in East 4.0 mph 9.0 mph 97 % 0.00 in 14 W/m2
07:17 54.0 °F 53.1 °F 29.94 in East 4.0 mph 9.0 mph 97 % 0.00 in 18 W/m2
07:23 54.0 °F 53.1 °F 29.94 in ENE 5.0 mph 11.0 mph 97 % 0.00 in 19 W/m2
07:28 54.0 °F 53.1 °F 29.94 in ENE 5.0 mph 11.0 mph 97 % 0.00 in 19 W/m2
07:33 54.0 °F 53.1 °F 29.95 in ENE 4.0 mph 8.0 mph 97 % 0.00 in 18 W/m2
07:38 53.8 °F 52.9 °F 29.95 in NE 5.0 mph 11.0 mph 97 % 0.00 in 19 W/m2
07:43 53.8 °F 52.9 °F 29.95 in ENE 5.0 mph 11.0 mph 97 % 0.00 in 19 W/m2
07:48 53.8 °F 52.9 °F 29.95 in ENE 4.0 mph 8.0 mph 97 % 0.00 in 18 W/m2
07:53 53.6 °F 52.8 °F 29.95 in ENE 4.0 mph 8.0 mph 97 % 0.00 in 19 W/m2
07:58 53.6 °F 52.8 °F 29.95 in ENE 4.0 mph 10.0 mph 97 % 0.00 in 21 W/m2
08:03 53.4 °F 52.6 °F 29.95 in ENE 3.0 mph 10.0 mph 97 % 0.00 in 23 W/m2
08:08 53.4 °F 52.6 °F 29.95 in ENE 3.0 mph 8.0 mph 97 % 0.00 in 21 W/m2
08:13 53.4 °F 52.6 °F 29.95 in ENE 3.0 mph 7.0 mph 97 % 0.00 in 25 W/m2
08:18 53.6 °F 52.8 °F 29.96 in ENE 3.0 mph 8.0 mph 97 % 0.00 in 25 W/m2
08:23 53.4 °F 52.6 °F 29.96 in ENE 4.0 mph 8.0 mph 97 % 0.00 in 21 W/m2
08:28 53.4 °F 52.6 °F 29.96 in ENE 4.0 mph 9.0 mph 97 % 0.00 in 19 W/m2
08:33 53.4 °F 52.6 °F 29.96 in ENE 4.0 mph 10.0 mph 97 % 0.00 in 19 W/m2
08:38 53.2 °F 52.4 °F 29.96 in ENE 5.0 mph 10.0 mph 97 % 0.00 in 18 W/m2
08:45 53.2 °F 52.4 °F 29.96 in ENE 5.0 mph 11.0 mph 97 % 0.00 in 23 W/m2
08:50 53.2 °F 52.4 °F 29.96 in ENE 5.0 mph 11.0 mph 97 % 0.00 in 26 W/m2
08:55 53.2 °F 52.4 °F 29.95 in East 4.0 mph 8.0 mph 97 % 0.00 in 26 W/m2
09:00 53.2 °F 52.4 °F 29.95 in ENE 4.0 mph 9.0 mph 97 % 0.00 in 35 W/m2
09:05 53.2 °F 52.4 °F 29.95 in ENE 4.0 mph 9.0 mph 97 % 0.00 in 44 W/m2
09:10 53.2 °F 52.4 °F 29.95 in ENE 5.0 mph 10.0 mph 97 % 0.00 in 35 W/m2
09:15 53.2 °F 52.4 °F 29.95 in ENE 5.0 mph 10.0 mph 97 % 0.00 in 35 W/m2
09:20 53.2 °F 52.4 °F 29.95 in East 4.0 mph 9.0 mph 97 % 0.00 in 35 W/m2
09:25 53.2 °F 52.4 °F 29.95 in East 5.0 mph 9.0 mph 97 % 0.00 in 40 W/m2
09:30 53.2 °F 52.4 °F 29.95 in East 5.0 mph 11.0 mph 97 % 0.00 in 40 W/m2
09:35 53.2 °F 52.4 °F 29.95 in ENE 4.0 mph 11.0 mph 97 % 0.01 in 39 W/m2
09:40 53.2 °F 52.4 °F 29.96 in East 3.0 mph 7.0 mph 97 % 0.01 in 39 W/m2
09:45 53.2 °F 52.4 °F 29.95 in East 4.0 mph 9.0 mph 97 % 0.01 in 51 W/m2
09:50 53.2 °F 52.4 °F 29.95 in East 4.0 mph 9.0 mph 97 % 0.01 in 58 W/m2
09:55 53.2 °F 52.4 °F 29.95 in ENE 5.0 mph 10.0 mph 97 % 0.01 in 56 W/m2
10:00 53.2 °F 52.4 °F 29.95 in ENE 5.0 mph 10.0 mph 97 % 0.01 in 54 W/m2
10:05 53.4 °F 52.6 °F 29.94 in East 4.0 mph 9.0 mph 97 % 0.02 in 56 W/m2
10:10 53.4 °F 52.6 °F 29.94 in East 4.0 mph 8.0 mph 97 % 0.02 in 42 W/m2
10:15 53.4 °F 52.6 °F 29.94 in East 3.0 mph 7.0 mph 97 % 0.02 in 40 W/m2
10:20 53.4 °F 52.6 °F 29.94 in East 4.0 mph 7.0 mph 97 % 0.02 in 39 W/m2
10:25 53.4 °F 52.6 °F 29.95 in East 3.0 mph 6.0 mph 97 % 0.02 in 33 W/m2
10:30 53.4 °F 52.6 °F 29.94 in East 2.0 mph 6.0 mph 97 % 0.02 in 35 W/m2
10:35 53.4 °F 52.6 °F 29.94 in ENE 3.0 mph 8.0 mph 97 % 0.01 in 42 W/m2
10:40 53.4 °F 52.6 °F 29.94 in ENE 4.0 mph 8.0 mph 97 % 0.01 in 42 W/m2
10:45 53.4 °F 52.6 °F 29.94 in ENE 3.0 mph 8.0 mph 97 % 0.01 in 37 W/m2
10:50 53.6 °F 52.8 °F 29.94 in ENE 2.0 mph 7.0 mph 97 % 0.01 in 37 W/m2
10:55 53.6 °F 52.8 °F 29.94 in ENE 2.0 mph 7.0 mph 97 % 0.01 in 37 W/m2
11:00 53.8 °F 52.9 °F 29.94 in East 3.0 mph 7.0 mph 97 % 0.01 in 32 W/m2
11:06 53.8 °F 52.9 °F 29.94 in ESE 4.0 mph 7.0 mph 97 % 0.01 in 47 W/m2
11:11 53.8 °F 52.9 °F 29.94 in ESE 4.0 mph 9.0 mph 97 % 0.01 in 46 W/m2
11:16 53.8 °F 52.9 °F 29.94 in ESE 5.0 mph 9.0 mph 97 % 0.01 in 60 W/m2
11:21 53.8 °F 52.9 °F 29.94 in ESE 4.0 mph 9.0 mph 97 % 0.01 in 54 W/m2
11:26 53.8 °F 52.9 °F 29.94 in East 4.0 mph 7.0 mph 97 % 0.01 in 81 W/m2
11:31 53.8 °F 52.9 °F 29.94 in East 4.0 mph 7.0 mph 97 % 0.02 in 77 W/m2
11:36 53.8 °F 52.9 °F 29.94 in East 4.0 mph 9.0 mph 97 % 0.02 in 65 W/m2
11:41 54.0 °F 53.1 °F 29.94 in East 3.0 mph 9.0 mph 97 % 0.02 in 54 W/m2
11:46 54.0 °F 53.1 °F 29.94 in East 2.0 mph 8.0 mph 97 % 0.02 in 91 W/m2
11:51 54.0 °F 53.1 °F 29.94 in East 3.0 mph 8.0 mph 97 % 0.02 in 90 W/m2
11:56 54.0 °F 53.1 °F 29.93 in ENE 2.0 mph 6.0 mph 97 % 0.02 in 98 W/m2
12:01 54.1 °F 53.3 °F 29.93 in East 2.0 mph 6.0 mph 97 % 0.02 in 90 W/m2
12:06 54.1 °F 53.3 °F 29.93 in East 3.0 mph 8.0 mph 97 % 0.02 in 104 W/m2
12:11 54.1 °F 53.3 °F 29.93 in East 4.0 mph 8.0 mph 97 % 0.02 in 134 W/m2
12:16 54.3 °F 53.5 °F 29.93 in East 4.0 mph 9.0 mph 97 % 0.02 in 130 W/m2
12:21 54.3 °F 53.5 °F 29.93 in East 4.0 mph 9.0 mph 97 % 0.02 in 105 W/m2
12:26 54.3 °F 53.5 °F 29.93 in East 3.0 mph 8.0 mph 97 % 0.02 in 102 W/m2
12:31 54.3 °F 53.5 °F 29.93 in East 3.0 mph 8.0 mph 97 % 0.01 in 98 W/m2
12:36 54.5 °F 53.7 °F 29.92 in East 3.0 mph 8.0 mph 97 % 0.01 in 176 W/m2
12:41 54.7 °F 53.8 °F 29.93 in East 3.0 mph 8.0 mph 97 % 0.01 in 153 W/m2
12:46 54.7 °F 53.8 °F 29.93 in East 3.0 mph 9.0 mph 97 % 0.01 in 91 W/m2
12:51 54.7 °F 53.8 °F 29.92 in East 4.0 mph 9.0 mph 97 % 0.01 in 63 W/m2
12:56 54.7 °F 53.8 °F 29.92 in ENE 3.0 mph 8.0 mph 97 % 0.01 in 111 W/m2
13:01 54.9 °F 54.0 °F 29.92 in East 2.0 mph 6.0 mph 97 % 0.00 in 118 W/m2
13:06 54.9 °F 54.0 °F 29.92 in East 3.0 mph 7.0 mph 97 % 0.00 in 139 W/m2
13:11 54.9 °F 54.0 °F 29.92 in East 3.0 mph 7.0 mph 97 % 0.00 in 128 W/m2
13:17 55.2 °F 54.4 °F 29.92 in East 3.0 mph 8.0 mph 97 % 0.00 in 135 W/m2
13:22 55.2 °F 54.4 °F 29.92 in East 4.0 mph 8.0 mph 97 % 0.00 in 125 W/m2
13:27 55.2 °F 54.4 °F 29.92 in East 3.0 mph 8.0 mph 97 % 0.00 in 60 W/m2
13:32 55.0 °F 54.2 °F 29.92 in ENE 2.0 mph 6.0 mph 97 % 0.00 in 54 W/m2
13:37 55.0 °F 54.2 °F 29.92 in East 2.0 mph 8.0 mph 97 % 0.00 in 62 W/m2
13:42 55.2 °F 54.4 °F 29.92 in East 3.0 mph 8.0 mph 97 % 0.00 in 95 W/m2
13:47 55.2 °F 54.4 °F 29.92 in East 2.0 mph 6.0 mph 97 % 0.00 in 79 W/m2
13:52 55.4 °F 54.6 °F 29.92 in East 2.0 mph 6.0 mph 97 % 0.00 in 72 W/m2
13:57 55.4 °F 54.6 °F 29.92 in East 3.0 mph 6.0 mph 97 % 0.00 in 42 W/m2
14:02 55.2 °F 54.4 °F 29.92 in East 3.0 mph 6.0 mph 97 % 0.00 in 56 W/m2
14:07 55.2 °F 54.4 °F 29.92 in ENE 2.0 mph 6.0 mph 97 % 0.00 in 65 W/m2
14:12 55.4 °F 54.6 °F 29.92 in ENE 1.0 mph 5.0 mph 97 % 0.00 in 54 W/m2
14:17 55.4 °F 54.6 °F 29.92 in ENE 2.0 mph 7.0 mph 97 % 0.00 in 47 W/m2
14:22 55.4 °F 54.6 °F 29.92 in ENE 3.0 mph 7.0 mph 97 % 0.00 in 40 W/m2
14:27 55.6 °F 54.7 °F 29.92 in ENE 2.0 mph 7.0 mph 97 % 0.00 in 35 W/m2
14:32 55.6 °F 54.7 °F 29.92 in ENE 2.0 mph 7.0 mph 97 % 0.00 in 32 W/m2
14:37 55.6 °F 54.7 °F 29.91 in East 2.0 mph 6.0 mph 97 % 0.00 in 37 W/m2
14:42 55.6 °F 54.7 °F 29.91 in East 3.0 mph 7.0 mph 97 % 0.00 in 39 W/m2
14:47 55.6 °F 54.5 °F 29.91 in ENE 2.0 mph 7.0 mph 96 % 0.00 in 44 W/m2
14:52 55.6 °F 54.5 °F 29.91 in ENE 2.0 mph 7.0 mph 96 % 0.00 in 33 W/m2
14:57 55.6 °F 54.5 °F 29.91 in East 3.0 mph 7.0 mph 96 % 0.00 in 39 W/m2
15:02 55.6 °F 54.7 °F 29.91 in East 2.0 mph 6.0 mph 97 % 0.00 in 40 W/m2
15:07 55.8 °F 54.9 °F 29.91 in East 2.0 mph 5.0 mph 97 % 0.00 in 37 W/m2
15:12 55.8 °F 54.9 °F 29.91 in East 2.0 mph 6.0 mph 97 % 0.00 in 44 W/m2
15:17 55.8 °F 54.9 °F 29.90 in East 2.0 mph 7.0 mph 97 % 0.00 in 62 W/m2
15:22 55.8 °F 54.9 °F 29.90 in East 2.0 mph 7.0 mph 97 % 0.00 in 47 W/m2
15:27 55.9 °F 55.1 °F 29.90 in East 1.0 mph 6.0 mph 97 % 0.00 in 58 W/m2
15:32 56.1 °F 55.3 °F 29.90 in ENE 1.0 mph 6.0 mph 97 % 0.00 in 54 W/m2
15:34 56.1 °F 55.3 °F 29.90 in ENE 2.0 mph 6.0 mph 97 % 0.00 in 53 W/m2
15:39 56.1 °F 55.0 °F 29.90 in East 3.0 mph 6.0 mph 96 % 0.00 in 49 W/m2
15:44 56.1 °F 55.0 °F 29.90 in East 2.0 mph 6.0 mph 96 % 0.00 in 44 W/m2
15:49 56.1 °F 55.0 °F 29.90 in East 3.0 mph 6.0 mph 96 % 0.00 in 44 W/m2
15:54 56.1 °F 55.0 °F 29.89 in East 3.0 mph 6.0 mph 96 % 0.00 in 49 W/m2
15:59 56.1 °F 55.0 °F 29.89 in East 2.0 mph 6.0 mph 96 % 0.00 in 32 W/m2
16:04 56.1 °F 55.0 °F 29.89 in East 2.0 mph 7.0 mph 96 % 0.00 in 28 W/m2
16:09 55.9 °F 54.8 °F 29.89 in East 3.0 mph 7.0 mph 96 % 0.00 in 28 W/m2
16:14 55.9 °F 54.8 °F 29.89 in ENE 2.0 mph 7.0 mph 96 % 0.00 in 28 W/m2
16:19 55.9 °F 54.8 °F 29.89 in ENE 2.0 mph 7.0 mph 96 % 0.00 in 25 W/m2
16:24 56.1 °F 55.0 °F 29.89 in ENE 2.0 mph 6.0 mph 96 % 0.00 in 35 W/m2
16:29 55.9 °F 54.8 °F 29.89 in ENE 2.0 mph 6.0 mph 96 % 0.00 in 33 W/m2
16:34 55.9 °F 54.8 °F 29.89 in ENE 3.0 mph 6.0 mph 96 % 0.00 in 40 W/m2
16:39 55.9 °F 54.8 °F 29.89 in ENE 3.0 mph 6.0 mph 96 % 0.00 in 33 W/m2
16:44 55.9 °F 54.8 °F 29.89 in NE 2.0 mph 6.0 mph 96 % 0.00 in 32 W/m2
16:49 56.1 °F 55.0 °F 29.89 in Calm   5.0 mph 96 % 0.00 in 26 W/m2
16:54 56.1 °F 55.0 °F 29.89 in NE 1.0 mph 3.0 mph 96 % 0.00 in 25 W/m2
16:59 56.1 °F 55.0 °F 29.89 in NE 1.0 mph 3.0 mph 96 % 0.00 in 26 W/m2
17:04 56.1 °F 55.0 °F 29.89 in ENE 1.0 mph 5.0 mph 96 % 0.00 in 30 W/m2
17:09 56.1 °F 55.0 °F 29.89 in ENE 1.0 mph 5.0 mph 96 % 0.00 in 32 W/m2
17:14 55.9 °F 54.8 °F 29.89 in ENE 1.0 mph 5.0 mph 96 % 0.00 in 26 W/m2
17:19 55.9 °F 54.8 °F 29.89 in ENE 1.0 mph 5.0 mph 96 % 0.00 in 28 W/m2
17:25 55.9 °F 54.8 °F 29.89 in ENE 1.0 mph 5.0 mph 96 % 0.00 in 26 W/m2
17:30 55.9 °F 54.8 °F 29.89 in ENE 1.0 mph 4.0 mph 96 % 0.00 in 30 W/m2
17:35 55.9 °F 54.8 °F 29.89 in East 1.0 mph 5.0 mph 96 % 0.00 in 33 W/m2
17:40 55.9 °F 54.8 °F 29.88 in ENE 1.0 mph 6.0 mph 96 % 0.00 in 39 W/m2
17:45 55.9 °F 54.8 °F 29.88 in ENE 2.0 mph 6.0 mph 96 % 0.01 in 42 W/m2
17:50 55.9 °F 54.8 °F 29.88 in ENE 2.0 mph 6.0 mph 96 % 0.01 in 35 W/m2
17:55 55.9 °F 55.1 °F 29.88 in ENE 2.0 mph 6.0 mph 97 % 0.01 in 39 W/m2
18:00 55.9 °F 55.1 °F 29.88 in ENE 2.0 mph 7.0 mph 97 % 0.01 in 35 W/m2
18:04 55.9 °F 55.1 °F 29.88 in ENE 3.0 mph 7.0 mph 97 % 0.01 in 33 W/m2
18:09 55.8 °F 54.9 °F 29.87 in ENE 4.0 mph 8.0 mph 97 % 0.01 in 37 W/m2
18:14 55.8 °F 54.9 °F 29.87 in ENE 3.0 mph 8.0 mph 97 % 0.01 in 39 W/m2
18:19 55.8 °F 54.9 °F 29.87 in ENE 3.0 mph 8.0 mph 97 % 0.01 in 49 W/m2
18:24 55.8 °F 54.9 °F 29.87 in ENE 3.0 mph 8.0 mph 97 % 0.01 in 35 W/m2
18:29 55.6 °F 54.7 °F 29.87 in ENE 2.0 mph 6.0 mph 97 % 0.01 in 26 W/m2
18:34 55.6 °F 54.5 °F 29.87 in ENE 3.0 mph 7.0 mph 96 % 0.01 in 40 W/m2
18:39 55.4 °F 54.3 °F 29.87 in ENE 3.0 mph 7.0 mph 96 % 0.01 in 37 W/m2
18:44 55.4 °F 54.6 °F 29.87 in ENE 3.0 mph 8.0 mph 97 % 0.00 in 26 W/m2
18:49 55.2 °F 54.4 °F 29.87 in ENE 3.0 mph 8.0 mph 97 % 0.00 in 21 W/m2
18:54 55.2 °F 54.4 °F 29.87 in ENE 2.0 mph 7.0 mph 97 % 0.00 in 25 W/m2
18:59 55.2 °F 54.4 °F 29.87 in ENE 2.0 mph 7.0 mph 97 % 0.00 in 19 W/m2
19:04 55.2 °F 54.4 °F 29.87 in ENE 2.0 mph 6.0 mph 97 % 0.00 in 21 W/m2
19:09 55.2 °F 54.4 °F 29.87 in East 2.0 mph 6.0 mph 97 % 0.00 in 26 W/m2
19:14 55.2 °F 54.4 °F 29.87 in East 2.0 mph 6.0 mph 97 % 0.00 in 23 W/m2
19:19 55.2 °F 54.4 °F 29.87 in East 2.0 mph 6.0 mph 97 % 0.00 in 21 W/m2
19:24 55.2 °F 54.4 °F 29.87 in East 2.0 mph 6.0 mph 97 % 0.00 in 19 W/m2
19:29 55.0 °F 54.2 °F 29.87 in East 2.0 mph 6.0 mph 97 % 0.00 in 23 W/m2
19:34 55.0 °F 54.2 °F 29.87 in East 2.0 mph 6.0 mph 97 % 0.01 in 18 W/m2
19:39 55.0 °F 54.2 °F 29.86 in ENE 2.0 mph 6.0 mph 97 % 0.01 in 16 W/m2
19:41 55.0 °F 54.2 °F 29.87 in East 2.0 mph 6.0 mph 97 % 0.01 in 14 W/m2
19:46 55.0 °F 54.2 °F 29.87 in East 2.0 mph 6.0 mph 97 % 0.01 in 11 W/m2
19:51 55.0 °F 54.2 °F 29.87 in East 1.0 mph 4.0 mph 97 % 0.01 in 11 W/m2
19:56 55.0 °F 54.2 °F 29.87 in East 1.0 mph 6.0 mph 97 % 0.01 in 12 W/m2
20:01 55.0 °F 54.2 °F 29.87 in ENE 2.0 mph 6.0 mph 97 % 0.01 in 14 W/m2
20:02 55.0 °F 54.2 °F 29.87 in ENE 2.0 mph 6.0 mph 97 % 0.01 in 16 W/m2
20:07 55.0 °F 54.2 °F 29.86 in ENE 2.0 mph 6.0 mph 97 % 0.01 in 19 W/m2
20:12 55.0 °F 54.2 °F 29.86 in ENE 2.0 mph 6.0 mph 97 % 0.01 in 19 W/m2
20:17 55.0 °F 54.2 °F 29.86 in ENE 2.0 mph 6.0 mph 97 % 0.01 in 16 W/m2
20:22 55.0 °F 54.2 °F 29.86 in East 1.0 mph 5.0 mph 97 % 0.01 in 11 W/m2
20:27 55.0 °F 54.2 °F 29.86 in East 2.0 mph 6.0 mph 97 % 0.01 in 9 W/m2
20:32 55.0 °F 54.2 °F 29.86 in East 2.0 mph 6.0 mph 97 % 0.00 in 9 W/m2
20:37 55.0 °F 54.2 °F 29.86 in East 1.0 mph 5.0 mph 97 % 0.00 in 5 W/m2
20:42 55.0 °F 54.2 °F 29.86 in ESE 1.0 mph 5.0 mph 97 % 0.00 in 5 W/m2
20:47 55.0 °F 54.2 °F 29.86 in East 1.0 mph 5.0 mph 97 % 0.00 in 0 W/m2
20:52 55.0 °F 54.2 °F 29.86 in East 1.0 mph 5.0 mph 97 % 0.00 in 0 W/m2
20:57 55.0 °F 54.2 °F 29.86 in East 1.0 mph 5.0 mph 97 % 0.00 in 5 W/m2
21:02 55.0 °F 54.2 °F 29.86 in East 1.0 mph 4.0 mph 97 % 0.00 in 5 W/m2
21:04 55.0 °F 54.2 °F 29.86 in Calm   4.0 mph 97 % 0.00 in 7 W/m2
21:09 55.0 °F 54.2 °F 29.87 in East 1.0 mph 5.0 mph 97 % 0.00 in 7 W/m2
21:10 55.0 °F 54.2 °F 29.86 in East 1.0 mph 5.0 mph 97 % 0.00 in 7 W/m2
21:15 55.0 °F 54.2 °F 29.87 in East 1.0 mph 5.0 mph 97 % 0.00 in 5 W/m2
21:20 55.0 °F 54.2 °F 29.86 in Calm   2.0 mph 97 % 0.00 in 0 W/m2
21:25 55.0 °F 54.2 °F 29.86 in Calm   2.0 mph 97 % 0.00 in 0 W/m2
21:30 55.0 °F 54.2 °F 29.87 in Calm   2.0 mph 97 % 0.00 in 0 W/m2
21:35 55.0 °F 54.2 °F 29.87 in Calm   3.0 mph 97 % 0.00 in 0 W/m2
21:36 55.0 °F 54.2 °F 29.87 in Calm   3.0 mph 97 % 0.00 in 0 W/m2
21:41 55.0 °F 54.2 °F 29.87 in Calm   2.0 mph 97 % 0.00 in 0 W/m2
21:46 55.0 °F 54.2 °F 29.87 in Calm     97 % 0.00 in 0 W/m2
21:51 55.0 °F 54.2 °F 29.87 in Calm   1.0 mph 97 % 0.00 in 0 W/m2
21:56 55.0 °F 54.2 °F 29.87 in Calm   3.0 mph 97 % 0.00 in 0 W/m2
22:01 55.0 °F 54.2 °F 29.87 in Calm   3.0 mph 97 % 0.00 in 0 W/m2
22:06 55.0 °F 54.2 °F 29.87 in Calm   1.0 mph 97 % 0.00 in 0 W/m2
22:11 55.0 °F 54.2 °F 29.87 in Calm   2.0 mph 97 % 0.00 in 0 W/m2
22:16 55.0 °F 54.2 °F 29.87 in Calm   2.0 mph 97 % 0.00 in 0 W/m2
22:21 55.0 °F 54.2 °F 29.87 in Calm   1.0 mph 97 % 0.00 in 0 W/m2
22:26 55.0 °F 54.2 °F 29.87 in Calm     97 % 0.00 in 0 W/m2
22:31 55.0 °F 54.2 °F 29.87 in Calm   1.0 mph 97 % 0.00 in 0 W/m2
22:36 55.0 °F 54.2 °F 29.86 in Calm   1.0 mph 97 % 0.00 in 0 W/m2
22:41 55.0 °F 54.2 °F 29.86 in East 1.0 mph 4.0 mph 97 % 0.00 in 0 W/m2
22:46 55.0 °F 54.2 °F 29.86 in East 1.0 mph 4.0 mph 97 % 0.00 in 0 W/m2
22:51 55.0 °F 54.2 °F 29.86 in Calm   3.0 mph 97 % 0.00 in 0 W/m2
22:56 55.0 °F 54.2 °F 29.86 in East 1.0 mph 5.0 mph 97 % 0.00 in 0 W/m2
23:01 55.0 °F 54.2 °F 29.86 in East 1.0 mph 5.0 mph 97 % 0.00 in 0 W/m2
23:06 55.0 °F 54.2 °F 29.86 in Calm   4.0 mph 97 % 0.00 in 0 W/m2
23:11 55.0 °F 54.2 °F 29.86 in Calm   4.0 mph 97 % 0.00 in 0 W/m2
23:16 55.0 °F 54.2 °F 29.86 in Calm   4.0 mph 97 % 0.00 in 0 W/m2
23:21 55.0 °F 54.2 °F 29.86 in Calm   4.0 mph 97 % 0.00 in 0 W/m2
23:26 55.0 °F 54.2 °F 29.86 in Calm   4.0 mph 97 % 0.00 in 0 W/m2
23:31 55.0 °F 54.2 °F 29.86 in East 1.0 mph 4.0 mph 97 % 0.00 in 0 W/m2
23:37 55.0 °F 54.2 °F 29.86 in East 1.0 mph 4.0 mph 97 % 0.00 in 0 W/m2
23:42 55.0 °F 54.2 °F 29.86 in East 1.0 mph 5.0 mph 97 % 0.00 in 0 W/m2
23:47 55.0 °F 54.2 °F 29.86 in East 1.0 mph 5.0 mph 97 % 0.00 in 0 W/m2
23:52 55.0 °F 54.2 °F 29.86 in Calm   3.0 mph 97 % 0.00 in 0 W/m2
23:57 55.0 °F 54.2 °F 29.86 in East 1.0 mph 3.0 mph 97 % 0.00 in 0 W/m2
23:59 55.0 °F 54.2 °F 29.86 in East 1.0 mph 3.0 mph 97 % 0.00 in 0 W/m2
Delerius-Weather
Compliments of Weather Underground - 2.25 mb

Data updates at regular intervals.